ALSAT 1B (41785 NORAD) Tracking and Keplerian Element Data

This shows tracking and keplerian element data for the satellite.

Feedback or suggestion? Click here.




ElementValue
Catalog41785
NameALSAT 1B
Epoch Orbit9643
Epoch Day198.80737982
Epoch Year2018
RAAN260.1869
Inclination98.114
Eccentricity0.0031467
Argument of Perigee0.091
Mean Anonmoly0.0279
Mean Motion14.63290978
Decay Rate5E-08
L11 41785U 16059C 18198.80737982 .00000005 00000-0 10320-4 0 9992
L22 41785 98.1140 260.1869 0031467 0.0910 0.0279 14.63290978 96432

Live tracking and technical data element details for ALSAT 1B (NORAD 41785). ALSAT 1B can be tracked NOW for your location showing map with azimuth and elevation plus other details from your city location.

Track the satellite on the map from your city or location and see movement details for azimuth, elevation, latitude, longitude, range, height, and movement on the map or in text.







IsCatalogInMostPopularTable: catalog: 41785, numindb: 66
Update: records affected: 1



GetName: 41785 ALSAT 1B

Hit Count: updated at: Thu, 19 Jul 2018 21:22:19 GMT